7 * 24
多渠道服务支持
STARLINK-4173是美国太空探索技术公司(SpaceX)星链星座的成员,于2022年7月24日发射升空。它隶属于第二代星链卫星,旨在为全球提供低延迟、高速率的宽带互联网服务,尤其覆盖偏远与网络基础设施匮乏区域。作为星链大规模组网的一环,该卫星运行在近地轨道,依托星座部署推进全球卫星互联网覆盖进程。
美国
(US)
| 数据来源 | 国际轨道数据 |
| 星历时间: | 2026-09-03T16:00:02+0800 20小时前 查看轨道信息 |
| 半长轴: | 6837.879km |
| 偏心率: | 0.0001183 |
| 轨道倾角: | 53.158° |
| 近地点辐角 | 95.338° |
| 升交点赤经 | 93.746° |
| 平近点角 | 220.727° |
| 近地点: | 458.933km |
| 远地点: | 460.551km |
| 周期: | 93.787分钟 |
| 每日圈数: | 15.35397 |
| 事件ID | 空间交会对象 | 最接近时刻(TCA) | 交会距离 | 交会风险概率(CRP) | 交会风险指数(CRI) | 操作 |
|---|---|---|---|---|---|---|
| CDM_260905-123305-187605-328521 |
STARLINK-3583
(51876)
STARLINK-4173
(53285) | 2026-09-05T 12:33:40+0000 |
0.742 km
远距离 | 6.301147E-5 中风险 | 0.71 | |
| CDM_260905-105905-187605-328521 |
STARLINK-3583
(51876)
STARLINK-4173
(53285) | 2026-09-05T 10:59:56+0000 |
2.171 km
极远距离 | 2.077764E-6 低风险 | 0.41 | |
| CDM_260905-140705-187605-328521 |
STARLINK-3583
(51876)
STARLINK-4173
(53285) | 2026-09-05T 14:07:24+0000 |
2.889 km
极远距离 | 1.254565E-6 低风险 | 0.37 | |
| CDM_260829-045005-328506-420321 |
STARLINK-4173
(53285)
STARLINK-33966
(64203) | 2026-08-29T 04:50:43+0000 |
2.994 km
极远距离 | 1.194014E-6 低风险 | 0.37 |